This is the latest recevied weather packets stored in our database for station/object RK6MF-10. If no packets are shown the sender has not sent any weather packets the latest 1 day(s).
| Time | Temp. | Humidity | Pressure | Rain* | Wind** | Luminosity | Snow |
|---|---|---|---|---|---|---|---|
| 1778075272 | 21.67° C | 42% | 1010.3 hPa | - | - | - | - |
| 1778074371 | 21.67° C | 40% | 1010 hPa | - | - | - | - |
| 1778073471 | 21.11° C | 41% | 1010.2 hPa | - | - | - | - |
| 1778072571 | 21.67° C | 39% | 1010.2 hPa | - | - | - | - |
| 1778066270 | 23.33° C | 30% | 1010.3 hPa | - | - | - | - |
| 1778065370 | 24.44° C | 32% | 1010.5 hPa | - | - | - | - |
| 1778064470 | 25.56° C | 31% | 1010.4 hPa | - | - | - | - |
| 1778059969 | 25° C | 35% | 1010.6 hPa | - | - | - | - |
| 1778059069 | 22.22° C | 37% | 1010.6 hPa | - | - | - | - |
| 1778058169 | 23.89° C | 37% | 1010.7 hPa | - | - | - | - |
| 1778057269 | 24.44° C | 36% | 1010.6 hPa | - | - | - | - |
| 1778056369 | 21.67° C | 40% | 1010.8 hPa | - | - | - | - |
| 1778053671 | 22.22° C | 41% | 1010.7 hPa | - | - | - | - |
| 1778052771 | 22.78° C | 42% | 1010.7 hPa | - | - | - | - |
| 1778051871 | 22.22° C | 41% | 1010.7 hPa | - | - | - | - |
| 1778050971 | 23.89° C | 42% | 1010.7 hPa | - | - | - | - |
| 1778046470 | 20.56° C | 47% | 1010.6 hPa | - | - | - | - |
| 1778045570 | 19.44° C | 52% | 1010.6 hPa | - | - | - | - |
| 1778044670 | 20.56° C | 52% | 1010.5 hPa | - | - | - | - |
| 1778043770 | 20.56° C | 54% | 1010.5 hPa | - | - | - | - |
| 1778042870 | 19.44° C | 59% | 1010.6 hPa | - | - | - | - |
| 1778040169 | 12.78° C | 100% | 1010.4 hPa | - | - | - | - |
| 1778039269 | 12.22° C | 100% | 1010.3 hPa | - | - | - | - |
| 1778037469 | 11.11° C | 98% | 1010.2 hPa | - | - | - | - |
| 1778036569 | 10.56° C | 93% | 1009.9 hPa | - | - | - | - |
* Rain since midnight (hover to see other rain measurements)
** Current wind speed in m/s (hover to see current wind gust speed)